Current weather by "City, St" or "zip code"  
 
Advertise Here

Current Conditions: Vinton, Vinton Veterans Memorial Airpark Airport, IA

Mostly Cloudy


37.0 F

Last Updated on Nov 23 2020, 8:55 pm CST
Humidity: 76%
Wind Speed: SE 6.9 mph
Barometer 30.21 in
Dewpoint: 29.8 F
Visibility: 10.00 mi
Precip: --
Heat Index: NA
Wind Chill: 32 F
Current conditions at:

Vinton, Vinton Veterans Memorial Airpark Airport, IA (KVTI)

Lat: 42.21861 Lon: 92.02583

Local Radar Image active severe weather and emergency alerts image image weather storm and storm spotter reports image weather observation monitoring service image
Local
Radar
Active
Alerts
Storm Reports Obs
Monitoring

Sign-up For Email & Text Message Weather Alert Notification Services


Advertise Here

Observation History for Vinton, Vinton Veterans Memorial Airpark Airport, IA


Time Wind
(mph)
Vis
(mi)
Weather Precip (in) Temperature (F) Relative
Humidity
Wind
Chill
(F)
Heat
Index
(F)
Pressure
Air Dwpt altimeter
(in)
sea level
(mb)
Rmks
8:55 pm CST SE 6.9 10.00 Mostly Cloudy -- 37.0 29.8 76% 32 NA 30.21 M
7:55 pm CST SE 5.8 10.00 Overcast -- 37.0 30.2 77% 32 NA 30.23 M
6:55 pm CST SE 5.8 10.00 Partly Cloudy -- 37.0 29.8 76% 32 NA 30.24 M
5:55 pm CST SE 5.8 10.00 Fair -- 38.0 30.0 73% 34 NA 30.25 M
4:55 pm CST S 6.9 10.00 Partly Cloudy -- 38.0 29.3 71% 33 NA 30.26 M
3:15 pm CST SE 3.5 10.00 Fair -- 40.0 29.1 64% NA NA 30.26 M
1:55 pm CST N 0.0 10.00 Fair -- 38.0 27.9 67% NA NA 30.28 M
12:55 pm CST N 0.0 10.00 Fair -- 38.0 28.8 68% NA NA 30.30 M
11:55 am CST N 0.0 10.00 Fair -- 38.0 29.3 71% NA NA 30.33 M
10:55 am CST N 0.0 10.00 Fair -- 36.0 28.2 75% NA NA 30.35 M
9:55 am CST N 0.0 10.00 Fair -- 33.0 29.5 87% NA NA 30.35 M
8:55 am CST NW 3.5 10.00 Fair -- 28.0 27.5 97% NA NA 30.35 M
7:55 am CST W 3.5 10.00 Fair -- 23.0 23.0 100% NA NA 30.35 M
6:55 am CST NW 4.6 10.00 Fair -- 22.0 22.1 99% 16 NA 30.33 M
5:55 am CST W 3.5 10.00 Fair -- 23.0 22.3 98% NA NA 30.31 M
4:55 am CST NW 4.6 10.00 Fair -- 24.0 23.0 96% 18 NA 30.31 M
3:55 am CST W 5.8 10.00 Fair -- 26.0 24.6 96% 19 NA 30.30 M
2:55 am CST W 6.9 10.00 Fair -- 28.0 27.1 96% 21 NA 30.29 M
1:55 am CST NW 6.9 10.00 Fair -- 28.0 27.3 96% 21 NA 30.28 M
12:55 am CST W 6.9 10.00 Fair -- 31.0 28.8 92% 24 NA 30.27 M
11:55 pm CST W 5.8 10.00 Fair -- 33.0 29.8 89% 28 NA 30.27 M
10:55 pm CST NW 9.2 10.00 Fair -- 36.0 32.0 87% 29 NA 30.25 M
9:55 pm CST W 9.2 10.00 Fair -- 36.0 31.1 84% 29 NA 30.24 M

Regional Weather Observation


Waterloo, Waterloo Municipal Airport, IA (KALO)

Overcast
36.0 F

Independence, Independence Municipal Airport, IA (KIIB)

Overcast
34.0 F

Oelwein Municipal Airport, IA (KOLZ)

Overcast
34.0 F

Marshalltown, Marshalltown Municipal Airport, IA (KMIW)

Overcast
33.0 F

Monticello Regional Airport, IA (KMXO)

Overcast
36.0 F

Cedar Rapids Airport, IA (KCID)

Overcast
34.0 F